When you browse on this site, cookies collect data to enhance your experience and personalize the content and advertising you see.
Visit our Privacy Policy to learn more. By continuing to use the site, you agree to this use of cookies and data.
  • în România
  • Lista ţărilor
  • Pe 7 zile
  • Temperatura apei
  • Meteo pe hartă
  • Widget-uri
  • user-avatar
    Intrare

    Meteo pe oră la Pruszcz Gdański

    Astăzi, 14 Noiembrie, Joi

    Timp Temperatura Precipitaţii Vânt Presiune Umiditate
    00:00 +6°C° 1.9 mm 4 m/s 750 mmHg 96%
    01:00 +5°C° 0 mm 5 m/s 750 mmHg 92%
    02:00 +5°C° 0.7 mm 5 m/s 750 mmHg 92%
    03:00 +5°C° 0.7 mm 4 m/s 751 mmHg 92%
    04:00 +5°C° 0.7 mm 4 m/s 751 mmHg 92%
    05:00 +5°C° 0.2 mm 4 m/s 752 mmHg 91%
    06:00 +4°C° 0.2 mm 4 m/s 753 mmHg 89%
    07:00 +4°C° 0.2 mm 4 m/s 754 mmHg 87%
    08:00 +4°C° 0 mm 4 m/s 754 mmHg 85%
    09:00 +5°C° 0 mm 4 m/s 755 mmHg 82%
    10:00 +5°C° 0 mm 4 m/s 756 mmHg 79%
    11:00 +5°C° 0 mm 4 m/s 757 mmHg 78%
    12:00 +6°C° 0 mm 4 m/s 757 mmHg 77%
    13:00 +7°C° 0 mm 3 m/s 758 mmHg 76%
    14:00 +5°C° 0 mm 3 m/s 758 mmHg 79%
    15:00 +6°C° 0 mm 2 m/s 759 mmHg 82%
    16:00 +6°C° 0 mm 1 m/s 759 mmHg 86%
    17:00 +6°C° 0 mm 1 m/s 760 mmHg 87%
    18:00 +4°C° 0 mm 2 m/s 760 mmHg 88%
    19:00 +4°C° 0 mm 2 m/s 760 mmHg 90%
    20:00 +4°C° 0 mm 2 m/s 761 mmHg 90%
    21:00 +3°C° 0 mm 2 m/s 761 mmHg 90%
    22:00 +3°C° 0 mm 2 m/s 761 mmHg 91%
    23:00 +2°C° 0 mm 3 m/s 761 mmHg 90%

    Mâine, 15 Noiembrie, Vineri

    Timp Temperatura Precipitaţii Vânt Presiune Umiditate
    00:00 +2°C° 0 mm 3 m/s 761 mmHg 90%
    01:00 +1°C° 0 mm 4 m/s 761 mmHg 90%
    02:00 +1°C° 0 mm 4 m/s 761 mmHg 89%
    03:00 +1°C° 0 mm 4 m/s 761 mmHg 89%
    04:00 +1°C° 0 mm 5 m/s 761 mmHg 88%
    05:00 +1°C° 0 mm 5 m/s 761 mmHg 89%
    06:00 +2°C° 0 mm 5 m/s 760 mmHg 89%
    07:00 +2°C° 0 mm 5 m/s 760 mmHg 89%
    08:00 +3°C° 0 mm 6 m/s 760 mmHg 88%
    09:00 +4°C° 0 mm 6 m/s 760 mmHg 88%
    10:00 +4°C° 0 mm 6 m/s 760 mmHg 87%
    11:00 +6°C° 0.1 mm 5 m/s 760 mmHg 90%
    12:00 +6°C° 0.1 mm 5 m/s 760 mmHg 92%
    13:00 +6°C° 0.1 mm 5 m/s 759 mmHg 95%
    14:00 +7°C° 0 mm 5 m/s 759 mmHg 95%
    15:00 +7°C° 0 mm 5 m/s 759 mmHg 95%
    16:00 +7°C° 0 mm 5 m/s 758 mmHg 95%
    17:00 +7°C° 0 mm 5 m/s 758 mmHg 94%
    18:00 +7°C° 0 mm 5 m/s 758 mmHg 94%
    19:00 +7°C° 0 mm 5 m/s 758 mmHg 93%
    20:00 +7°C° 0 mm 5 m/s 758 mmHg 93%
    21:00 +6°C° 0 mm 4 m/s 758 mmHg 94%
    22:00 +6°C° 0 mm 4 m/s 757 mmHg 94%
    23:00 +6°C° 0 mm 4 m/s 757 mmHg 94%

    Poimâine, 16 Noiembrie, Sâmbătă

    Timp Temperatura Precipitaţii Vânt Presiune Umiditate
    00:00 +6°C° 0 mm 4 m/s 757 mmHg 95%
    01:00 +6°C° 0 mm 4 m/s 757 mmHg 96%
    02:00 +6°C° 0 mm 4 m/s 757 mmHg 96%
    03:00 +6°C° 0 mm 4 m/s 756 mmHg 96%
    04:00 +6°C° 0 mm 4 m/s 756 mmHg 96%
    05:00 +6°C° 0 mm 4 m/s 755 mmHg 96%
    06:00 +6°C° 0 mm 4 m/s 755 mmHg 96%
    07:00 +6°C° 0 mm 4 m/s 755 mmHg 96%
    08:00 +7°C° 0 mm 4 m/s 755 mmHg 93%
    09:00 +8°C° 0 mm 5 m/s 755 mmHg 90%
    10:00 +9°C° 0 mm 5 m/s 754 mmHg 86%
    11:00 +9°C° 0 mm 5 m/s 754 mmHg 84%
    12:00 +10°C° 0 mm 5 m/s 754 mmHg 81%
    13:00 +12°C° 0 mm 5 m/s 754 mmHg 79%
    14:00 +10°C° 0 mm 5 m/s 754 mmHg 81%
    15:00 +11°C° 0 mm 4 m/s 754 mmHg 83%
    16:00 +11°C° 0 mm 4 m/s 754 mmHg 84%
    17:00 +10°C° 0 mm 4 m/s 755 mmHg 83%
    18:00 +8°C° 0 mm 5 m/s 756 mmHg 82%
    19:00 +8°C° 0 mm 5 m/s 756 mmHg 81%
    20:00 +7°C° 0 mm 4 m/s 757 mmHg 82%
    21:00 +6°C° 0 mm 4 m/s 758 mmHg 82%
    22:00 +5°C° 0 mm 4 m/s 758 mmHg 83%
    23:00 +5°C° 0 mm 4 m/s 759 mmHg 83%

    17 Noiembrie, Duminică

    Timp Temperatura Precipitaţii Vânt Presiune Umiditate
    00:00 +5°C° 0 mm 4 m/s 759 mmHg 84%
    01:00 +4°C° 0 mm 4 m/s 760 mmHg 84%
    02:00 +4°C° 0 mm 4 m/s 760 mmHg 84%
    03:00 +4°C° 0 mm 4 m/s 760 mmHg 83%
    04:00 +3°C° 0 mm 4 m/s 760 mmHg 83%
    05:00 +3°C° 0 mm 4 m/s 760 mmHg 83%
    06:00 +3°C° 0 mm 4 m/s 761 mmHg 83%
    07:00 +3°C° 0 mm 4 m/s 761 mmHg 83%
    08:00 +4°C° 0 mm 4 m/s 761 mmHg 80%
    09:00 +5°C° 0 mm 4 m/s 762 mmHg 77%
    10:00 +6°C° 0 mm 4 m/s 762 mmHg 73%
    11:00 +7°C° 0 mm 3 m/s 762 mmHg 72%
    12:00 +8°C° 0 mm 2 m/s 762 mmHg 71%
    13:00 +9°C° 0 mm 1 m/s 762 mmHg 69%
    14:00 +8°C° 0 mm 2 m/s 761 mmHg 73%
    15:00 +8°C° 0 mm 2 m/s 761 mmHg 77%
    16:00 +7°C° 0 mm 2 m/s 761 mmHg 80%
    17:00 +7°C° 0 mm 3 m/s 761 mmHg 83%
    18:00 +7°C° 0 mm 3 m/s 761 mmHg 86%
    19:00 +7°C° 0 mm 3 m/s 761 mmHg 89%
    20:00 +7°C° 0 mm 3 m/s 761 mmHg 91%
    21:00 +7°C° 0 mm 3 m/s 760 mmHg 92%
    22:00 +7°C° 0 mm 3 m/s 760 mmHg 94%
    23:00 +7°C° 0 mm 3 m/s 760 mmHg 93%

    18 Noiembrie, Luni

    Timp Temperatura Precipitaţii Vânt Presiune Umiditate
    00:00 +7°C° 0 mm 3 m/s 759 mmHg 93%
    01:00 +7°C° 0 mm 3 m/s 759 mmHg 92%
    02:00 +7°C° 0 mm 3 m/s 758 mmHg 93%
    03:00 +7°C° 0 mm 3 m/s 758 mmHg 93%
    04:00 +7°C° 0 mm 3 m/s 757 mmHg 93%
    05:00 +7°C° 0 mm 3 m/s 757 mmHg 94%
    06:00 +7°C° 0 mm 3 m/s 757 mmHg 95%
    07:00 +6°C° 0 mm 4 m/s 756 mmHg 96%
    08:00 +7°C° 0 mm 4 m/s 756 mmHg 94%
    09:00 +7°C° 0 mm 4 m/s 756 mmHg 93%
    10:00 +8°C° 0 mm 4 m/s 756 mmHg 92%
    11:00 +8°C° 0 mm 4 m/s 756 mmHg 89%
    12:00 +10°C° 0 mm 4 m/s 755 mmHg 86%
    13:00 +10°C° 0 mm 4 m/s 755 mmHg 83%
    14:00 +10°C° 0 mm 4 m/s 754 mmHg 84%
    15:00 +8°C° 0 mm 4 m/s 754 mmHg 85%
    16:00 +8°C° 0 mm 4 m/s 754 mmHg 86%
    17:00 +7°C° 0 mm 4 m/s 753 mmHg 86%
    18:00 +7°C° 0 mm 4 m/s 753 mmHg 87%
    19:00 +7°C° 0 mm 5 m/s 753 mmHg 88%
    20:00 +7°C° 0 mm 5 m/s 753 mmHg 87%
    21:00 +7°C° 0 mm 5 m/s 753 mmHg 86%
    22:00 +7°C° 0 mm 5 m/s 753 mmHg 86%
    23:00 +7°C° 0 mm 5 m/s 754 mmHg 87%

    19 Noiembrie, Marţi

    Timp Temperatura Precipitaţii Vânt Presiune Umiditate
    00:00 +7°C° 0 mm 5 m/s 754 mmHg 88%
    01:00 +7°C° 0 mm 5 m/s 754 mmHg 88%
    02:00 +6°C° 0 mm 5 m/s 755 mmHg 88%
    03:00 +6°C° 0 mm 5 m/s 755 mmHg 88%
    04:00 +5°C° 0 mm 5 m/s 755 mmHg 87%
    05:00 +5°C° 0 mm 5 m/s 756 mmHg 87%
    06:00 +4°C° 0 mm 4 m/s 756 mmHg 87%
    07:00 +4°C° 0 mm 4 m/s 757 mmHg 87%
    08:00 +5°C° 0 mm 5 m/s 757 mmHg 82%
    09:00 +6°C° 0 mm 5 m/s 757 mmHg 77%
    10:00 +5°C° 0 mm 6 m/s 758 mmHg 72%
    11:00 +7°C° 0 mm 5 m/s 758 mmHg 70%
    12:00 +7°C° 0 mm 5 m/s 758 mmHg 68%
    13:00 +8°C° 0 mm 5 m/s 758 mmHg 67%
    14:00 +7°C° 0 mm 5 m/s 758 mmHg 70%
    15:00 +6°C° 0 mm 4 m/s 758 mmHg 74%
    16:00 +5°C° 0 mm 3 m/s 758 mmHg 77%
    17:00 +5°C° 0 mm 3 m/s 759 mmHg 77%
    18:00 +5°C° 0 mm 3 m/s 759 mmHg 77%
    19:00 +5°C° 0 mm 3 m/s 759 mmHg 77%
    20:00 +6°C° 0 mm 2 m/s 759 mmHg 78%
    21:00 +6°C° 0 mm 2 m/s 759 mmHg 78%
    22:00 +7°C° 0 mm 1 m/s 759 mmHg 78%
    23:00 +7°C° 0.4 mm 1 m/s 759 mmHg 81%
    Arată mai mult